Satellite: AO-27
Catalog number: 22825
Epoch time:      06026.53458394
Element set:     318
Inclination:      098.2690 deg
RA of node:       015.4208 deg
Eccentricity:    0.0008016
Arg of perigee:   327.0888 deg
Mean anomaly:     032.9772 deg
Mean motion:   14.29160177 rev/day
Decay rate:       -2.7e-07 rev/day^2
Epoch rev:           64312
Checksum:              305

Satellite: IO-26
Catalog number: 22826
Epoch time:      06025.54848050
Element set:       3
Inclination:      098.2647 deg
RA of node:       015.7319 deg
Eccentricity:    0.0008684
Arg of perigee:   328.8584 deg
Mean anomaly:     031.2080 deg
Mean motion:   14.29403018 rev/day
Decay rate:        8.0e-08 rev/day^2
Epoch rev:           64305
Checksum:              288

Satellite: PO-28
Catalog number: 22829
Epoch time:      06025.89098828
Element set:    0287
Inclination:      098.2549 deg
RA of node:       017.2578 deg
Eccentricity:    0.0009033
Arg of perigee:   301.2006 deg
Mean anomaly:     058.8282 deg
Mean motion:   14.30090139 rev/day
Decay rate:        1.5e-07 rev/day^2
Epoch rev:           64330
Checksum:              305

Satellite: TO-31
Catalog number: 25396
Epoch time:      06025.77680014
Element set:     442
Inclination:      098.5017 deg
RA of node:       091.0237 deg
Eccentricity:    0.0001793
Arg of perigee:   244.4205 deg
Mean anomaly:     115.6788 deg
Mean motion:   14.23695351 rev/day
Decay rate:        7.2e-07 rev/day^2
Epoch rev:           39208
Checksum:              295

Satellite: GO-32
Catalog number: 25397
Epoch time:      06025.60271540
Element set:    0934
Inclination:      098.4903 deg
RA of node:       087.9140 deg
Eccentricity:    0.0000326
Arg of perigee:   255.3813 deg
Mean anomaly:     104.7327 deg
Mean motion:   14.23097708 rev/day
Decay rate:        2.8e-07 rev/day^2
Epoch rev:           39196
Checksum:              299

Satellite: UO-36
Catalog number: 25693
Epoch time:      06026.88147615
Element set:     944
Inclination:      064.5590 deg
RA of node:       316.7128 deg
Eccentricity:    0.0002629
Arg of perigee:   303.7672 deg
Mean anomaly:     056.3383 deg
Mean motion:   14.78573079 rev/day
Decay rate:        2.6e-07 rev/day^2
Epoch rev:           36489
Checksum:              337

Satellite: MO-46
Catalog number: 26548
Epoch time:      06026.82904128
Element set:     397
Inclination:      064.5584 deg
RA of node:       308.9385 deg
Eccentricity:    0.0052266
Arg of perigee:   267.0384 deg
Mean anomaly:     092.4765 deg
Mean motion:   14.82905329 rev/day
Decay rate:       2.63e-06 rev/day^2
Epoch rev:           28844
Checksum:              344

Satellite: NO-44
Catalog number: 26931
Epoch time:      06025.47374053
Element set:    0219
Inclination:      067.0523 deg
RA of node:       015.2700 deg
Eccentricity:    0.0006742
Arg of perigee:   273.2678 deg
Mean anomaly:     086.7661 deg
Mean motion:   14.29423534 rev/day
Decay rate:       2.15e-06 rev/day^2
Epoch rev:           22553
Checksum:              285

Satellite: SO-50
Catalog number: 27607
Epoch time:      06026.76873013
Element set:     928
Inclination:      064.5568 deg
RA of node:       182.3490 deg
Eccentricity:    0.0060326
Arg of perigee:   189.7253 deg
Mean anomaly:     170.2670 deg
Mean motion:   14.71090236 rev/day
Decay rate:       2.25e-06 rev/day^2
Epoch rev:           16662
Checksum:              304

Satellite: AO-51
Catalog number: 28375
Epoch time:      06025.19683285
Element set:    0445
Inclination:      098.1879 deg
RA of node:       083.6058 deg
Eccentricity:    0.0083706
Arg of perigee:   280.8609 deg
Mean anomaly:     078.3157 deg
Mean motion:   14.40501545 rev/day
Decay rate:        2.1e-07 rev/day^2
Epoch rev:           08258
Checksum:              325

Satellite: XO-53
Catalog number: 28894
Epoch time:      06026.25709417
Element set:     292
Inclination:      098.1806 deg
RA of node:       286.7011 deg
Eccentricity:    0.0016593
Arg of perigee:   256.4595 deg
Mean anomaly:     103.4742 deg
Mean motion:   14.59432088 rev/day
Decay rate:        6.9e-07 rev/day^2
Epoch rev:            1327
Checksum:              322

/EX
SB KEPS @ AMSAT  $ORB06026.W
Orbital Elements  06026.WEATHER

HR AMSAT ORBITAL ELEMENTS FOR WEATHER SATELLITES
FROM WA5QGD FORT WORTH,TX January 26, 2006
Send SUBSCRIBE KEPS/UNSUBSCRIBE KEPS to majordomo@amsat.org only
BID: ORB06026.W
TO ALL RADIO AMATEURS BT

Satellite: NOAA-10
Catalog number: 16969
Epoch time:      06026.46719548
Element set:      69
Inclination:      098.7653 deg
RA of node:       037.7705 deg
Eccentricity:    0.0012055
Arg of perigee:   199.9027 deg
Mean anomaly:     160.1681 deg
Mean motion:   14.27283767 rev/day
Decay rate:        2.6e-07 rev/day^2
Epoch rev:             694
Checksum:              330

Satellite: NOAA-11
Catalog number: 19531
Epoch time:      06026.21105502
Element set:     966
Inclination:      098.8346 deg
RA of node:       116.1508 deg
Eccentricity:    0.0012055
Arg of perigee:   037.1340 deg
Mean anomaly:     323.0660 deg
Mean motion:   14.14789424 rev/day
Decay rate:       1.60e-06 rev/day^2
Epoch rev:           89446
Checksum:              275

Satellite: NOAA-12
Catalog number: 21263
Epoch time:      06026.17881196
Element set:     455
Inclination:      098.7217 deg
RA of node:       020.1299 deg
Eccentricity:    0.0013286
Arg of perigee:   138.1942 deg
Mean anomaly:     222.0257 deg
Mean motion:   14.25481207 rev/day
Decay rate:      -1.23e-06 rev/day^2
Epoch rev:           76401
Checksum:              280

